{"data":{"norad_id":44343,"epoch":"2026-05-24T20:28:28.885440Z","epoch_age_seconds":80930,"freshness":"FRESH","line1":"1 44343U 19036E   26144.85311210  .00004159  00000+0  23123-3 0  9997","line2":"2 44343  24.0004 339.1169 0000942  29.1728 330.8828 15.09596798379714","mean_motion":15.09596798,"eccentricity":9.42e-5,"inclination_deg":24.0004,"raan_deg":339.1169,"arg_perigee_deg":29.1728,"mean_anomaly_deg":330.8828,"bstar":0.00023123,"rev_number":37971,"period_min":95.389709484532,"perigee_km":536.77968017479,"apogee_km":538.08257320986,"semimajor_km":6915.5681266923,"source":"CELESTRAK","updated_at":"2026-05-25T13:37:55.969472Z"}}